STARLINK-1873, 47158

Orbit data source: Space-Track

STARLINK-1873, 47158 is a payload satellite owned by SpaceX/Seattle (US) in LEO that was launched on Wed, 25 Nov 2020 UTC via an FALCON 9 launch vehicle from the Air Force Eastern Test Range (AFETR). Payload-class satellites include a variety of spacecraft equipped with specific instruments for various scientific and technological missions. These include communications satellites like Starlink; space stations such as the ISS; scientific satellites like the Hubble; Earth observation satellites from companies like Planet Labs, Umbra, and HawkEye 360; GPS; miniature CubeSats for education and research; and military/defense satellites.

Loading next visibility...
Identifier
47158, 2020-088AN
Orbit
LEO
Country
Flag of USUS
Related business
Manufacturer
SpaceX/Seattle
Mission
Partially operational Commercial Communications
Bus & Motor
STARLINK, Unknown motor
Mass
260 kg wet, ~248 kg dry
Launch date (UTC)
2020-11-25 (6 years ago)
Launch vehicle
FALCON 9
Launch site
Air Force Eastern Test Range (AFETR)
Object type
Payload
Rocket body
Debris
Shape & HBR
Box + 1 Pan, 10.1 m
Radar Cross Section
13.562 m², Large (>1 m²)

Expand to show TLE details & history
Last TLE update: 2 days ago

TLE from 2 days ago
0 STARLINK-1873
1 47158U 20088AN  26171.50003471  .00096665  00000-0  43740-3 0  9993
2 47158  53.0398 121.4177 0002191 166.4039 262.7546 15.83214557  5985
Epoch: 2026-06-20T12:00Z
TLE epoch observation values (Epoch: 2026-06-20T12:00:02.998Z)
Latitude
48.45102°
Longitude
90.28392°
Altitude
326.975 km
Speed
7.718 km/s
True Right ascension
11h 56m 02s
True Declination
48° 16' 09"
Sunlit
Object was in daylight at epoch
Visualization orbit readout
Latitude
Unknown
Longitude
Unknown
Altitude
Unknown
Speed
Unknown
Apparent Right ascension
Unknown
Apparent Declination
Unknown
Sunlit
N/A
Visualization observer readout
Local Sidereal Time
23:08:17
Azimuth
Unknown
Elevation
Unknown
Doppler factor
Unknown
Orbital elements
Apogee altitude
323.107 km
Perigee altitude
320.171 km
Semi-major axis
6,699.776 km
Eccentricity
0.00022
Inclination
53.0398°
RAAN
121.4177°
Arg. of periapsis
166.4039°
True anomaly
262.72969°
Mean anomaly
262.7546°
Eccentric anomaly
262.74215°
Mean motion
3.95779 °/min
Orbital period
90.96 mins
BSTAR
0.0004374
Loading maneuver chart data...
Computing Atmospheric mass density...

Documentation

Showing up to 5 results
|